Le nostre stazioni meteo in Italia

Pubblicità
Il mio iltempo24.it
Ancona, Italia (16190): Temperatura & dewpoint: 15.06.2019 00:00:00 - 21.06.2019 00:00:00 (CEST)Ancona, Italia (16190): velocità del vento: 15.06.2019 00:00:00 - 21.06.2019 00:00:00 (CEST)Ancona, Italia (16190): direzione del vento: 15.06.2019 00:00:00 - 21.06.2019 00:00:00 (CEST)Ancona, Italia (16190): reduced air pressure: 15.06.2019 00:00:00 - 21.06.2019 00:00:00 (CEST)
Data & Tempo tt [°C] td [°C] ff [km/h] ff [kn] dd ppp [hPa]
21.06.2019 00:00:00 - - - - - -
20.06.2019 23:00:00 24,2 14,2 15 8 S -
20.06.2019 22:00:00 24,3 12,8 24 13 S -
20.06.2019 21:00:00 24,3 15,7 16 9 S -
20.06.2019 20:00:00 26,1 14,8 15 8 S -
20.06.2019 19:00:00 27,1 14,8 9 5 SSE -
20.06.2019 18:00:00 26,2 17,2 9 5 ESE -
20.06.2019 17:00:00 26,7 15,4 15 8 E 1006,5
20.06.2019 16:00:00 27,0 15,0 15 8 ESE 1006,7
20.06.2019 15:00:00 26,2 16,7 16 9 E 1007,3
20.06.2019 14:00:00 27,2 13,8 11 6 E 1007,5
20.06.2019 13:00:00 29,2 10,4 11 6 NE 1007,3
20.06.2019 12:00:00 28,9 12,8 5 3 NNE 1007,4
20.06.2019 11:00:00 28,4 11,9 11 6 N 1007,5
20.06.2019 10:00:00 26,7 12,3 8 4 ONO 1007,4
20.06.2019 09:00:00 25,5 12,3 13 7 O 1007,4
20.06.2019 08:00:00 24,2 12,5 15 8 OSO 1007,0
20.06.2019 07:00:00 23,3 11,6 9 5 SO 1007,0
20.06.2019 06:00:00 23,9 11,5 11 6 SO 1006,8
20.06.2019 05:00:00 23,8 11,4 16 9 SO 1006,5
20.06.2019 04:00:00 24,0 11,6 18 10 SSO 1006,5
20.06.2019 03:00:00 25,2 12,7 16 9 SO 1006,7
20.06.2019 02:00:00 24,0 15,4 5 3 SO 1006,7
20.06.2019 01:00:00 23,5 16,5 8 4 SO 1006,8
20.06.2019 00:00:00 25,0 15,5 13 7 S 1006,8
19.06.2019 23:00:00 25,5 16,3 11 6 SSE 1006,9
19.06.2019 22:00:00 25,3 11,8 11 6 SSE 1006,9
19.06.2019 21:00:00 26,3 13,0 15 8 SSE 1006,3
19.06.2019 20:00:00 27,9 16,5 4 2 S 1006,5
19.06.2019 19:00:00 28,3 14,8 8 4 S 1006,3
19.06.2019 18:00:00 27,6 13,5 11 6 E 1006,2
19.06.2019 17:00:00 27,5 17,3 5 3 E 1006,2
19.06.2019 16:00:00 27,7 19,4 11 6 ESE 1006,8
19.06.2019 15:00:00 26,7 19,8 15 8 E 1007,1
19.06.2019 14:00:00 27,0 20,5 11 6 ENE 1007,4
19.06.2019 13:00:00 27,5 19,2 9 5 S 1007,6
19.06.2019 12:00:00 27,3 18,8 9 5 NE 1007,8
19.06.2019 11:00:00 27,4 18,1 4 2 NE 1008,1
19.06.2019 10:00:00 26,5 18,3 5 3 NNE 1008,2
19.06.2019 09:00:00 24,8 18,4 4 2 NO 1008,3
19.06.2019 08:00:00 23,7 17,4 4 2 SO 1008,0
19.06.2019 07:00:00 22,4 17,5 4 2 SO 1008,0
19.06.2019 06:00:00 21,7 15,9 5 3 OSO 1008,0
19.06.2019 05:00:00 21,9 15,6 4 2 O 1007,8
19.06.2019 04:00:00 22,5 15,5 4 2 OSO 1007,9
19.06.2019 03:00:00 22,2 14,5 0 0 N 1008,2
19.06.2019 02:00:00 22,6 14,9 9 5 S 1008,3
19.06.2019 01:00:00 22,8 14,8 13 7 S 1008,4
19.06.2019 00:00:00 23,0 15,2 18 10 S 1008,5
18.06.2019 23:00:00 22,7 15,0 13 7 S 1008,6
18.06.2019 22:00:00 22,8 15,1 15 8 S 1008,7
18.06.2019 21:00:00 23,7 15,4 16 9 S 1008,4
18.06.2019 20:00:00 25,4 12,9 5 3 SSE 1008,5
18.06.2019 19:00:00 25,4 15,3 9 5 E 1008,1
18.06.2019 18:00:00 25,5 17,1 8 4 O 1007,9
18.06.2019 17:00:00 26,5 16,7 4 2 NE 1008,3
18.06.2019 16:00:00 26,8 17,5 15 8 NNE 1008,7
18.06.2019 15:00:00 26,6 15,9 13 7 NNE 1009,2
18.06.2019 14:00:00 26,1 16,3 8 4 N 1009,6
18.06.2019 13:00:00 26,4 18,7 8 4 N 1009,9
18.06.2019 12:00:00 24,7 17,6 15 8 NNO 1010,3
18.06.2019 11:00:00 25,3 18,9 15 8 N 1010,1
18.06.2019 10:00:00 23,9 18,7 15 8 NO 1010,3
18.06.2019 09:00:00 23,3 18,5 15 8 ONO 1010,3
18.06.2019 08:00:00 22,4 17,0 9 5 ONO 1009,9
18.06.2019 07:00:00 21,6 16,7 9 5 O 1009,8
18.06.2019 06:00:00 20,7 16,2 5 3 O 1009,3
18.06.2019 05:00:00 21,0 16,9 8 4 NO 1009,2
18.06.2019 04:00:00 21,0 16,3 8 4 ONO 1009,2
18.06.2019 03:00:00 21,3 17,0 13 7 NO 1009,6
18.06.2019 02:00:00 21,3 17,0 15 8 ONO 1009,8
18.06.2019 01:00:00 21,4 17,5 9 5 ONO 1009,9
18.06.2019 00:00:00 21,9 17,8 8 4 O 1009,8
17.06.2019 23:00:00 22,4 17,5 8 4 NO 1009,5
17.06.2019 22:00:00 22,5 18,2 5 3 NO 1009,2
17.06.2019 21:00:00 22,8 17,6 15 8 ONO 1008,9
17.06.2019 20:00:00 24,1 16,0 5 3 ONO 1008,9
17.06.2019 19:00:00 24,5 16,7 9 5 O 1009,1
17.06.2019 18:00:00 24,4 16,6 8 4 N 1008,8
17.06.2019 17:00:00 24,2 18,3 5 3 NNE 1009,1
17.06.2019 16:00:00 24,4 16,8 8 4 ONO 1008,9
17.06.2019 15:00:00 27,2 19,0 15 8 NNE 1008,6
17.06.2019 14:00:00 27,3 19,3 8 4 NNE 1008,9
17.06.2019 13:00:00 27,5 18,4 5 3 NE 1009,0
17.06.2019 12:00:00 27,1 19,9 8 4 NE 1009,1
17.06.2019 11:00:00 26,1 17,4 8 4 N 1009,3
17.06.2019 10:00:00 25,8 18,7 11 6 NNO 1009,3
17.06.2019 09:00:00 24,3 17,0 11 6 O 1009,2
17.06.2019 08:00:00 23,1 16,8 5 3 OSO 1009,0
17.06.2019 07:00:00 22,8 14,0 4 2 OSO 1008,7
17.06.2019 06:00:00 23,2 13,3 5 3 O 1008,4
17.06.2019 05:00:00 23,4 12,9 9 5 OSO 1007,7
17.06.2019 04:00:00 23,7 12,6 5 3 SO 1007,8
17.06.2019 03:00:00 23,8 12,7 5 3 SSO 1007,7
17.06.2019 02:00:00 24,2 12,5 4 2 SSO 1007,8
17.06.2019 01:00:00 24,1 12,0 8 4 SSO 1008,2
17.06.2019 00:00:00 24,5 11,8 5 3 S 1008,1
16.06.2019 23:00:00 24,8 11,7 5 3 S 1007,9
16.06.2019 22:00:00 24,9 10,7 5 3 SO 1007,5
16.06.2019 21:00:00 24,7 10,9 8 4 SO 1006,7
16.06.2019 20:00:00 26,5 13,5 8 4 NO 1007,0
16.06.2019 19:00:00 26,4 14,8 8 4 NNO 1007,1
16.06.2019 18:00:00 25,8 16,0 13 7 NNO 1007,1
16.06.2019 17:00:00 26,2 16,4 9 5 N 1007,3
16.06.2019 16:00:00 26,2 16,7 15 8 N 1007,8
16.06.2019 15:00:00 26,7 18,5 11 6 NNO 1007,9
16.06.2019 14:00:00 25,9 17,2 8 4 N 1008,3
16.06.2019 13:00:00 26,3 18,4 15 8 N 1008,8
16.06.2019 12:00:00 26,3 17,3 8 4 NNE 1009,0
16.06.2019 11:00:00 25,6 16,4 16 9 N 1008,9
16.06.2019 10:00:00 25,6 12,4 16 9 NNO 1008,7
16.06.2019 09:00:00 25,4 12,6 8 4 NO 1008,5
16.06.2019 08:00:00 24,3 11,6 15 8 O 1008,3
16.06.2019 07:00:00 23,5 10,5 15 8 O 1008,2
16.06.2019 06:00:00 23,2 10,6 15 8 O 1007,9
16.06.2019 05:00:00 23,0 11,4 9 5 OSO 1007,9
16.06.2019 04:00:00 22,9 11,9 9 5 O 1007,9
16.06.2019 03:00:00 23,7 13,2 8 4 OSO 1008,1
16.06.2019 02:00:00 23,7 15,1 13 7 OSO 1008,2
16.06.2019 01:00:00 24,1 14,7 8 4 SO 1007,9
16.06.2019 00:00:00 25,1 14,2 8 4 NO 1007,8
15.06.2019 23:00:00 24,8 15,4 2 1 N 1007,3
15.06.2019 22:00:00 24,3 15,4 5 3 ENE 1007,2
15.06.2019 21:00:00 24,9 15,7 4 2 NE 1006,8
15.06.2019 20:00:00 26,3 15,0 5 3 NE 1006,7
15.06.2019 19:00:00 27,0 16,2 4 2 NNE 1006,8
15.06.2019 18:00:00 27,9 15,2 5 3 N 1007,0
15.06.2019 17:00:00 28,3 18,9 5 3 NNO 1007,5
15.06.2019 16:00:00 29,0 15,5 9 5 N 1007,7
15.06.2019 15:00:00 30,2 16,2 8 4 N 1007,6
15.06.2019 14:00:00 29,9 17,0 9 5 N 1007,9
15.06.2019 13:00:00 29,0 17,5 5 3 S 1008,2
15.06.2019 12:00:00 28,7 18,1 5 3 NE 1008,3
15.06.2019 11:00:00 28,5 19,4 5 3 ONO 1008,3
15.06.2019 10:00:00 26,0 16,8 5 3 SO 1007,8
15.06.2019 09:00:00 25,6 16,7 11 6 S 1008,2
15.06.2019 08:00:00 24,0 16,2 9 5 SSO 1008,2
15.06.2019 07:00:00 26,3 15,0 15 8 ESE 1007,4
15.06.2019 06:00:00 23,8 15,5 5 3 S 1008,7
15.06.2019 05:00:00 24,2 14,2 5 3 ONO 1008,7
15.06.2019 04:00:00 24,3 13,7 11 6 S 1008,3
15.06.2019 03:00:00 26,2 13,9 9 5 E 1008,6
15.06.2019 02:00:00 24,8 13,6 4 2 OSO 1009,1
15.06.2019 01:00:00 24,3 14,0 9 5 OSO 1009,6
15.06.2019 00:00:00 24,8 12,0 18 10 S 1009,5

tt = Temperatura
td = dewpoint
ff = velocità del vento
dd = direzione del vento
ppp = reduced air pressure

Stazioni seguenti

WeatherPro
AMSI
MeteoEarth